Time,TemperatureF,DewpointF,PressureIn,WindDirection,WindDirectionDegrees,WindSpeedMPH,WindSpeedGustMPH,Humidity,HourlyPrecipIn,Conditions,Clouds,dailyrainin,SoftwareType,DateUTC
2013-01-08 00:04:00,60.9,60.0,30.16,North,5,2.0,4.0,98,0.00,,,0.00,weatherlink.com 1.10,2013-01-08 05:04:00,
2013-01-08 00:19:00,60.8,60.0,30.15,WNW,302,4.0,4.0,98,0.00,,,0.00,weatherlink.com 1.10,2013-01-08 05:19:00,
2013-01-08 00:34:00,60.7,60.0,30.15,NW,323,2.0,3.0,98,0.00,,,0.00,weatherlink.com 1.10,2013-01-08 05:34:00,
2013-01-08 00:49:00,60.5,60.0,30.15,NW,314,2.0,4.0,98,0.00,,,0.00,weatherlink.com 1.10,2013-01-08 05:49:00,
2013-01-08 01:04:00,60.5,60.0,30.15,NW,312,2.0,3.0,98,0.00,,,0.00,weatherlink.com 1.10,2013-01-08 06:04:00,
2013-01-08 01:19:00,60.6,60.0,30.15,North,1,2.0,2.0,99,0.00,,,0.00,weatherlink.com 1.10,2013-01-08 06:19:00,
2013-01-08 01:34:00,60.8,61.0,30.14,WNW,299,3.0,3.0,99,0.00,,,0.00,weatherlink.com 1.10,2013-01-08 06:34:00,
2013-01-08 01:50:00,61.0,61.0,30.14,NW,314,2.0,4.0,99,0.00,,,0.00,weatherlink.com 1.10,2013-01-08 06:50:00,
2013-01-08 02:05:00,61.1,61.0,30.14,NW,311,3.0,5.0,99,0.00,,,0.00,weatherlink.com 1.10,2013-01-08 07:05:00,
2013-01-08 02:19:00,61.1,61.0,30.13,NNW,336,1.0,5.0,99,0.00,,,0.00,weatherlink.com 1.10,2013-01-08 07:19:00,
2013-01-08 02:38:00,61.2,61.0,30.13,NW,312,2.0,5.0,98,0.00,,,0.00,weatherlink.com 1.10,2013-01-08 07:38:00,
2013-01-08 02:49:00,61.2,61.0,30.13,NNW,340,1.0,3.0,98,0.00,,,0.00,weatherlink.com 1.10,2013-01-08 07:49:00,
2013-01-08 03:04:00,61.2,61.0,30.13,NW,304,1.0,2.0,98,0.00,,,0.00,weatherlink.com 1.10,2013-01-08 08:04:00,
2013-01-08 03:19:00,61.2,61.0,30.13,NW,314,1.0,2.0,98,0.00,,,0.00,weatherlink.com 1.10,2013-01-08 08:19:00,
2013-01-08 03:34:00,61.2,61.0,30.13,North,354,0.0,1.0,98,0.00,,,0.00,weatherlink.com 1.10,2013-01-08 08:34:00,
2013-01-08 03:49:00,61.0,61.0,30.13,WNW,290,0.0,0.0,98,0.00,,,0.00,weatherlink.com 1.10,2013-01-08 08:49:00,
2013-01-08 04:04:00,60.8,61.0,30.13,WNW,290,0.0,0.0,99,0.00,,,0.00,weatherlink.com 1.10,2013-01-08 09:04:00,
2013-01-08 04:19:00,60.7,61.0,30.13,WNW,290,0.0,0.0,99,0.00,,,0.00,weatherlink.com 1.10,2013-01-08 09:19:00,
2013-01-08 04:34:00,61.0,61.0,30.13,WNW,289,0.0,0.0,99,0.00,,,0.00,weatherlink.com 1.10,2013-01-08 09:34:00,
2013-01-08 04:50:00,61.3,61.0,30.14,NW,305,1.0,2.0,99,0.00,,,0.00,weatherlink.com 1.10,2013-01-08 09:50:00,
2013-01-08 05:05:00,61.4,61.0,30.13,NW,307,0.0,2.0,99,0.00,,,0.00,weatherlink.com 1.10,2013-01-08 10:05:00,
2013-01-08 05:20:00,61.6,61.0,30.13,NNW,341,1.0,2.0,99,0.00,,,0.00,weatherlink.com 1.10,2013-01-08 10:20:00,
2013-01-08 05:35:00,61.6,61.0,30.13,NW,304,1.0,2.0,99,0.00,,,0.00,weatherlink.com 1.10,2013-01-08 10:35:00,
2013-01-08 05:50:00,61.5,61.0,30.13,NW,314,0.0,2.0,99,0.00,,,0.00,weatherlink.com 1.10,2013-01-08 10:50:00,
2013-01-08 06:05:00,61.2,61.0,30.14,NW,314,0.0,1.0,99,0.00,,,0.00,weatherlink.com 1.10,2013-01-08 11:05:00,
2013-01-08 06:20:00,61.1,61.0,30.14,NNE,15,0.0,1.0,99,0.00,,,0.00,weatherlink.com 1.10,2013-01-08 11:20:00,
2013-01-08 06:35:00,60.9,61.0,30.14,NNW,335,0.0,1.0,99,0.00,,,0.00,weatherlink.com 1.10,2013-01-08 11:35:00,
2013-01-08 06:50:00,60.5,60.0,30.15,NW,326,0.0,0.0,99,0.00,,,0.00,weatherlink.com 1.10,2013-01-08 11:50:00,
2013-01-08 07:05:00,60.6,60.0,30.16,NNW,328,0.0,1.0,99,0.00,,,0.00,weatherlink.com 1.10,2013-01-08 12:05:00,
2013-01-08 07:20:00,59.9,60.0,30.16,NNW,338,1.0,1.0,99,0.00,,,0.00,weatherlink.com 1.10,2013-01-08 12:20:00,
2013-01-08 07:35:00,59.4,59.0,30.17,NNW,339,0.0,0.0,100,0.00,,,0.00,weatherlink.com 1.10,2013-01-08 12:35:00,
2013-01-08 07:50:00,59.0,59.0,30.18,NNW,338,0.0,0.0,100,0.00,,,0.00,weatherlink.com 1.10,2013-01-08 12:50:00,
2013-01-08 08:05:00,60.3,60.0,30.19,NNW,339,0.0,0.0,100,0.00,,,0.00,weatherlink.com 1.10,2013-01-08 13:05:00,
2013-01-08 08:20:00,61.5,62.0,30.20,NNW,339,0.0,0.0,100,0.00,,,0.00,weatherlink.com 1.10,2013-01-08 13:20:00,
2013-01-08 08:35:00,62.3,62.0,30.20,NNW,339,0.0,1.0,100,0.00,,,0.00,weatherlink.com 1.10,2013-01-08 13:35:00,
2013-01-08 08:50:00,63.3,63.0,30.21,NNW,335,0.0,1.0,100,0.00,,,0.00,weatherlink.com 1.10,2013-01-08 13:50:00,
2013-01-08 09:05:00,64.5,65.0,30.21,ESE,110,0.0,1.0,100,0.00,,,0.00,weatherlink.com 1.10,2013-01-08 14:05:00,
2013-01-08 09:21:00,66.4,66.0,30.21,NW,322,0.0,3.0,100,0.00,,,0.00,weatherlink.com 1.10,2013-01-08 14:21:00,
2013-01-08 09:35:00,67.8,68.0,30.22,ESE,102,4.0,5.0,100,0.00,,,0.00,weatherlink.com 1.10,2013-01-08 14:35:00,
2013-01-08 09:50:00,68.9,69.0,30.22,North,3,0.0,3.0,100,0.00,,,0.00,weatherlink.com 1.10,2013-01-08 14:50:00,
2013-01-08 10:05:00,70.1,70.0,30.22,WSW,245,1.0,3.0,99,0.00,,,0.00,weatherlink.com 1.10,2013-01-08 15:05:00,
2013-01-08 10:20:00,71.0,70.0,30.22,ESE,115,0.0,5.0,98,0.00,,,0.00,weatherlink.com 1.10,2013-01-08 15:20:00,
2013-01-08 10:35:00,72.2,71.0,30.22,ENE,68,3.0,5.0,96,0.00,,,0.00,weatherlink.com 1.10,2013-01-08 15:35:00,
2013-01-08 10:50:00,73.5,71.0,30.21,NW,312,1.0,6.0,93,0.00,,,0.00,weatherlink.com 1.10,2013-01-08 15:50:00,
2013-01-08 11:05:00,76.4,71.0,30.20,NE,54,2.0,5.0,83,0.00,,,0.00,weatherlink.com 1.10,2013-01-08 16:05:00,
2013-01-08 11:21:00,77.2,71.0,30.19,East,94,3.0,7.0,80,0.00,,,0.00,weatherlink.com 1.10,2013-01-08 16:21:00,
2013-01-08 11:36:00,77.0,70.0,30.19,East,100,3.0,6.0,80,0.00,,,0.00,weatherlink.com 1.10,2013-01-08 16:36:00,
2013-01-08 11:51:00,77.0,70.0,30.19,East,99,3.0,6.0,79,0.00,,,0.00,weatherlink.com 1.10,2013-01-08 16:51:00,
2013-01-08 12:06:00,77.7,71.0,30.18,NNW,345,6.0,7.0,79,0.00,,,0.00,weatherlink.com 1.10,2013-01-08 17:06:00,
2013-01-08 12:23:00,78.4,70.0,30.17,ENE,61,3.0,5.0,76,0.00,,,0.00,weatherlink.com 1.10,2013-01-08 17:23:00,
2013-01-08 12:36:00,79.1,70.0,30.16,East,93,2.0,5.0,73,0.00,,,0.00,weatherlink.com 1.10,2013-01-08 17:36:00,
2013-01-08 12:51:00,79.3,70.0,30.16,NNW,347,2.0,7.0,73,0.00,,,0.00,weatherlink.com 1.10,2013-01-08 17:51:00,
2013-01-08 13:06:00,79.3,70.0,30.15,East,101,0.0,5.0,72,0.00,,,0.00,weatherlink.com 1.10,2013-01-08 18:06:00,
2013-01-08 13:21:00,80.3,69.0,30.15,NE,36,2.0,6.0,69,0.00,,,0.00,weatherlink.com 1.10,2013-01-08 18:21:00,
2013-01-08 13:36:00,80.0,69.0,30.14,NNW,340,3.0,5.0,69,0.00,,,0.00,weatherlink.com 1.10,2013-01-08 18:36:00,
2013-01-08 13:51:00,80.5,69.0,30.14,East,97,1.0,4.0,68,0.00,,,0.00,weatherlink.com 1.10,2013-01-08 18:51:00,
2013-01-08 14:06:00,81.0,69.0,30.14,NW,316,2.0,7.0,68,0.00,,,0.00,weatherlink.com 1.10,2013-01-08 19:06:00,
2013-01-08 14:21:00,81.3,69.0,30.13,North,1,2.0,5.0,67,0.00,,,0.00,weatherlink.com 1.10,2013-01-08 19:21:00,
2013-01-08 14:36:00,81.3,69.0,30.13,East,79,2.0,5.0,66,0.00,,,0.00,weatherlink.com 1.10,2013-01-08 19:36:00,
2013-01-08 14:51:00,81.8,68.0,30.12,North,1,0.0,8.0,64,0.00,,,0.00,weatherlink.com 1.10,2013-01-08 19:51:00,
2013-01-08 15:06:00,81.8,68.0,30.12,NE,39,1.0,6.0,63,0.00,,,0.00,weatherlink.com 1.10,2013-01-08 20:06:00,
2013-01-08 15:21:00,81.2,68.0,30.12,ENE,62,3.0,6.0,64,0.00,,,0.00,weatherlink.com 1.10,2013-01-08 20:21:00,
2013-01-08 15:36:00,81.7,68.0,30.12,ENE,71,3.0,7.0,64,0.00,,,0.00,weatherlink.com 1.10,2013-01-08 20:36:00,
2013-01-08 15:51:00,80.5,69.0,30.13,ESE,103,0.0,8.0,68,0.00,,,0.00,weatherlink.com 1.10,2013-01-08 20:51:00,
2013-01-08 16:06:00,79.3,69.0,30.13,ENE,77,0.0,7.0,71,0.00,,,0.00,weatherlink.com 1.10,2013-01-08 21:06:00,
2013-01-08 16:21:00,79.1,69.0,30.13,East,95,2.0,5.0,71,0.00,,,0.00,weatherlink.com 1.10,2013-01-08 21:21:00,
2013-01-08 16:36:00,78.5,69.0,30.13,NNE,22,2.0,6.0,72,0.00,,,0.00,weatherlink.com 1.10,2013-01-08 21:36:00,
2013-01-08 16:51:00,78.5,70.0,30.13,East,96,0.0,5.0,74,0.00,,,0.00,weatherlink.com 1.10,2013-01-08 21:51:00,
2013-01-08 17:06:00,77.7,69.0,30.13,East,100,1.0,4.0,75,0.00,,,0.00,weatherlink.com 1.10,2013-01-08 22:06:00,
2013-01-08 17:21:00,77.1,69.0,30.14,ENE,58,2.0,4.0,76,0.00,,,0.00,weatherlink.com 1.10,2013-01-08 22:21:00,
2013-01-08 17:36:00,76.5,69.0,30.14,ESE,102,0.0,4.0,77,0.00,,,0.00,weatherlink.com 1.10,2013-01-08 22:36:00,
2013-01-08 17:51:00,75.7,69.0,30.14,East,90,0.0,3.0,79,0.00,,,0.00,weatherlink.com 1.10,2013-01-08 22:51:00,
2013-01-08 18:06:00,74.9,69.0,30.14,East,96,0.0,2.0,81,0.00,,,0.00,weatherlink.com 1.10,2013-01-08 23:06:00,
2013-01-08 18:21:00,74.0,68.0,30.15,ENE,74,1.0,1.0,82,0.00,,,0.00,weatherlink.com 1.10,2013-01-08 23:21:00,
2013-01-08 18:36:00,73.3,68.0,30.15,East,95,0.0,1.0,84,0.00,,,0.00,weatherlink.com 1.10,2013-01-08 23:36:00,
2013-01-08 18:51:00,72.8,68.0,30.15,East,94,0.0,1.0,85,0.00,,,0.00,weatherlink.com 1.10,2013-01-08 23:51:00,
2013-01-08 19:06:00,71.8,68.0,30.15,East,94,0.0,0.0,87,0.00,,,0.00,weatherlink.com 1.10,2013-01-09 00:06:00,
2013-01-08 19:21:00,71.0,68.0,30.16,East,94,0.0,0.0,89,0.00,,,0.00,weatherlink.com 1.10,2013-01-09 00:21:00,
2013-01-08 19:36:00,70.5,68.0,30.16,East,94,0.0,0.0,90,0.00,,,0.00,weatherlink.com 1.10,2013-01-09 00:36:00,
2013-01-08 19:51:00,70.5,68.0,30.16,East,101,0.0,1.0,91,0.00,,,0.00,weatherlink.com 1.10,2013-01-09 00:51:00,
2013-01-08 20:06:00,70.4,68.0,30.16,ESE,115,0.0,2.0,91,0.00,,,0.00,weatherlink.com 1.10,2013-01-09 01:06:00,
2013-01-08 20:21:00,70.3,68.0,30.16,East,93,0.0,1.0,91,0.00,,,0.00,weatherlink.com 1.10,2013-01-09 01:21:00,
2013-01-08 20:36:00,69.8,67.0,30.17,East,93,0.0,0.0,92,0.00,,,0.00,weatherlink.com 1.10,2013-01-09 01:36:00,
2013-01-08 20:51:00,69.7,68.0,30.17,East,87,0.0,0.0,93,0.00,,,0.00,weatherlink.com 1.10,2013-01-09 01:51:00,
2013-01-08 21:06:00,69.9,68.0,30.17,ENE,68,0.0,2.0,93,0.00,,,0.00,weatherlink.com 1.10,2013-01-09 02:06:00,
2013-01-08 21:21:00,70.2,68.0,30.16,East,82,0.0,5.0,93,0.00,,,0.00,weatherlink.com 1.10,2013-01-09 02:21:00,
2013-01-08 21:36:00,70.4,68.0,30.17,NE,49,0.0,4.0,92,0.00,,,0.00,weatherlink.com 1.10,2013-01-09 02:36:00,
2013-01-08 21:51:00,70.4,68.0,30.18,SSE,158,0.0,5.0,92,0.00,,,0.00,weatherlink.com 1.10,2013-01-09 02:51:00,
2013-01-08 22:21:00,70.0,68.0,30.18,East,86,0.0,2.0,92,0.00,,,0.00,weatherlink.com 1.10,2013-01-09 03:21:00,
2013-01-08 22:36:00,70.1,67.0,30.18,ENE,71,2.0,3.0,91,0.00,,,0.00,weatherlink.com 1.10,2013-01-09 03:36:00,
2013-01-08 22:51:00,70.3,67.0,30.18,ENE,72,2.0,4.0,90,0.00,,,0.00,weatherlink.com 1.10,2013-01-09 03:51:00,
2013-01-08 23:06:00,70.3,68.0,30.19,ENE,60,1.0,4.0,91,0.00,,,0.00,weatherlink.com 1.10,2013-01-09 04:06:00,
2013-01-08 23:21:00,70.3,68.0,30.19,East,80,2.0,4.0,92,0.00,,,0.00,weatherlink.com 1.10,2013-01-09 04:21:00,
2013-01-08 23:51:00,70.4,68.0,30.19,ENE,74,2.0,4.0,93,0.00,,,0.00,weatherlink.com 1.10,2013-01-09 04:51:00,